This demonstration page uses our WeatherBlox Daily Observations layout. Learn more.

40.92945, -100.16068

Hourly Observations for March 2, 2018

Temp ( °F °C ) Dew Point ( °F °C ) Humidity (%) Winds ( mph kmh ) Pressure ( in mb ) Visibility ( mi km ) Precip ( " mm )
12:15 am 00:15 Clear 35 1.5 18 -8 50 50 SE 9 15 30.27 1025 10 16.0934 0 0
12:35 am 00:35 Clear 35 1.6 18 -7.7 50 50 SE 9 15 30.27 1025 10 16.0934 0 0
12:55 am 00:55 Clear 35 1.7 18 -7.8 50 50 SE 9 15 30.27 1025 10 16.0934 0 0
1:15 am 01:15 Clear 36 2.2 17 -8.4 46 46 SE 12 19 30.24 1024 10 16.0934 0 0
1:35 am 01:35 Clear 37 2.5 17 -8.5 44 44 SE 12 19 30.24 1024 10 16.0934 0 0
1:55 am 01:55 Clear 37 2.9 16 -8.7 43 43 SE 13 20 30.24 1024 10 16.0934 0 0
2:15 am 02:15 Clear 38 3.4 15 -9.3 39 39 SSE 18 30 30.21 1023 10 16.0934 0 0
2:35 am 02:35 Clear 38 3.2 16 -9 41 41 SE 17 28 30.21 1023 10 16.0934 0 0
2:55 am 02:55 Clear 37 3 16 -9 41 41 SSE 20 31 30.18 1022 10 16.0934 0 0
3:15 am 03:15 Clear 37 2.8 16 -9 42 42 SE 16 26 30.18 1022 10 16.0934 0 0
3:35 am 03:35 Clear 37 3 16 -9.1 41 41 SE 17 28 30.18 1022 10 16.0934 0 0
3:55 am 03:55 Clear 37 3 15 -9.4 40 40 SSE 17 28 30.18 1022 10 16.0934 0 0
4:15 am 04:15 Clear 37 2.5 15 -9.3 42 42 SSE 15 24 30.18 1022 10 16.0934 0 0
4:35 am 04:35 Clear 36 2.2 15 -9.3 43 43 SE 16 26 30.15 1021 10 16.0934 0 0
4:55 am 04:55 Clear 35 1.7 16 -8.9 46 46 SE 13 20 30.15 1021 10 16.0934 0 0
5:15 am 05:15 Clear 35 1.5 16 -8.9 46 46 SE 12 19 30.21 1023 10 16.0934 0 0
5:35 am 05:35 Clear 35 1.6 16 -8.9 46 46 SSE 14 22 30.15 1021 10 16.0934 0 0
5:55 am 05:55 Clear 35 1.6 17 -8.6 47 47 SSE 18 30 30.15 1021 10 16.0934 0 0
6:15 am 06:15 Clear 35 1.5 17 -8.5 48 48 SSE 16 26 30.15 1021 10 16.0934 0 0
6:35 am 06:35 Clear 34 1.3 17 -8.6 48 48 SSE 16 26 30.15 1021 10 16.0934 0 0
6:55 am 06:55 Clear 34 1.1 17 -8.5 49 49 SSE 14 22 30.21 1023 10 16.0934 0 0
7:15 am 07:15 Sunny 33 0.8 17 -8.3 51 51 SSE 17 28 30.18 1022 10 16.0934 0 0
7:35 am 07:35 Sunny 33 0.8 17 -8.1 52 52 SSE 15 24 30.21 1023 10 16.0934 0 0
7:55 am 07:55 Sunny 34 1.1 17 -8.1 51 51 SSE 15 24 30.21 1023 10 16.0934 0 0
8:15 am 08:15 Sunny 35 1.6 17 -8.2 49 49 SSE 17 28 30.18 1022 10 16.0934 0 0
8:35 am 08:35 Sunny 36 2.1 17 -8.3 46 46 SSE 17 28 30.18 1022 10 16.0934 0 0
8:55 am 08:55 Sunny 37 2.7 17 -8.2 45 45 SSE 15 24 30.18 1022 10 16.0934 0 0
9:15 am 09:15 Sunny 38 3.6 17 -8.1 42 42 S 13 20 30.18 1022 10 16.0934 0 0
9:35 am 09:35 Sunny 40 4.3 17 -8.4 40 40 S 16 26 30.12 1020 10 16.0934 0 0
9:55 am 09:55 Sunny 41 5.1 18 -8 39 39 SSE 18 30 30.09 1019 10 16.0934 0 0
10:15 am 10:15 Sunny 42 5.7 18 -7.7 38 38 S 20 31 30.09 1019 10 16.0934 0 0
10:35 am 10:35 Sunny 43 6.2 18 -7.8 36 36 SSE 18 30 30.09 1019 10 16.0934 0 0
10:55 am 10:55 Sunny 45 7.2 19 -7.2 35 35 S 18 30 30.06 1018 10 16.0934 0 0
11:15 am 11:15 Sunny 47 8.2 19 -7 34 34 S 20 31 30.06 1018 10 16.0934 0 0
11:35 am 11:35 Sunny 49 9.3 20 -6.6 32 32 S 17 28 30.06 1018 10 16.0934 0 0
11:55 am 11:55 Sunny 50 10 21 -6.2 32 32 S 16 26 30.06 1018 10 16.0934 0 0
12:15 pm 12:15 Sunny 52 11 22 -5.5 31 31 S 15 24 30.03 1017 10 16.0934 0 0
12:35 pm 12:35 Sunny 53 11.6 22 -5.3 30 30 SSW 16 26 30.03 1017 10 16.0934 0 0
12:55 pm 12:55 Sunny 55 12.5 23 -4.9 30 30 S 12 19 30.03 1017 10 16.0934 0 0
1:15 pm 13:15 Sunny 55 13 24 -4.7 29 29 SSW 12 19 30.03 1017 10 16.0934 0 0
1:35 pm 13:35 Sunny 56 13.4 24 -4.6 29 29 S 12 19 29.97 1015 10 16.0934 0 0
1:55 pm 13:55 Sunny 58 14.3 25 -4.1 28 28 S 12 19 29.97 1015 10 16.0934 0 0
2:15 pm 14:15 Sunny 59 15.1 25 -3.7 27 27 S 12 19 29.94 1014 10 16.0934 0 0
2:35 pm 14:35 Sunny 60 15.3 25 -3.7 27 27 SSE 14 22 29.94 1014 10 16.0934 0 0
2:55 pm 14:55 Sunny 61 16.1 26 -3.4 26 26 S 15 24 29.94 1014 10 16.0934 0 0
3:15 pm 15:15 Sunny 62 16.5 26 -3.4 26 26 SSE 15 24 29.91 1013 10 16.0934 0 0
3:35 pm 15:35 Sunny 63 17 26 -3.3 25 25 SSE 16 26 29.88 1012 10 16.0934 0 0
3:55 pm 15:55 Sunny 64 17.5 27 -2.9 25 25 S 14 22 29.88 1012 10 16.0934 0 0
4:15 pm 16:15 Sunny 64 17.7 27 -2.9 25 25 SE 13 20 29.88 1012 10 16.0934 0 0
4:35 pm 16:35 Sunny 64 17.7 27 -2.8 25 25 SSE 16 26 29.88 1012 10 16.0934 0 0
4:55 pm 16:55 Sunny 64 17.6 27 -2.6 25 25 SSE 14 22 29.85 1011 10 16.0934 0 0
5:15 pm 17:15 Sunny 63 17.4 28 -2.1 27 27 SSE 12 19 29.85 1011 10 16.0934 0 0
5:35 pm 17:35 Sunny 62 16.8 28 -2 28 28 SE 8 13 29.85 1011 10 16.0934 0 0
5:55 pm 17:55 Sunny 61 16.2 28 -2.2 28 28 SE 8 13 29.85 1011 10 16.0934 0 0
6:15 pm 18:15 Sunny 58 14.3 29 -1.6 34 34 ESE 8 13 29.88 1012 10 16.0934 0 0
6:35 pm 18:35 Clear 54 12.3 30 -1.1 40 40 E 8 13 29.88 1012 10 16.0934 0 0
6:55 pm 18:55 Clear 50 10 32 -0.1 50 50 E 9 15 29.91 1013 10 16.0934 0 0
7:15 pm 19:15 Clear 52 11.2 31 -0.6 44 44 E 9 15 29.91 1013 10 16.0934 0 0
7:35 pm 19:35 Clear 52 11.1 30 -0.9 44 44 ESE 12 19 29.91 1013 10 16.0934 0 0
7:55 pm 19:55 Clear 53 11.7 29 -1.4 40 40 ESE 15 24 29.91 1013 10 16.0934 0 0
8:15 pm 20:15 Clear 51 10.8 29 -1.4 43 43 SE 15 24 29.91 1013 10 16.0934 0 0
8:35 pm 20:35 Clear 51 10.4 29 -1.6 43 43 SE 15 24 29.91 1013 10 16.0934 0 0
8:55 pm 20:55 Clear 50 10 29 -1.8 44 44 SE 14 22 29.91 1013 10 16.0934 0 0
9:15 pm 21:15 Clear 49 9.7 28 -2 44 44 SE 17 28 29.91 1013 10 16.0934 0 0
9:35 pm 21:35 Clear 50 10 28 -2.5 42 42 SE 16 26 29.91 1013 10 16.0934 0 0
9:55 pm 21:55 Clear 49 9.3 27 -2.6 43 43 SE 16 26 29.91 1013 10 16.0934 0 0
10:15 pm 22:15 Clear 46 7.8 27 -2.6 48 48 SE 13 20 29.94 1014 10 16.0934 0 0
10:35 pm 22:35 Clear 44 6.4 28 -2.5 53 53 SE 12 19 29.94 1014 10 16.0934 0 0
10:55 pm 22:55 Clear 45 7.3 27 -2.7 49 49 SE 15 24 29.94 1014 10 16.0934 0 0
11:15 pm 23:15 Clear 45 7.2 27 -2.8 49 49 SE 13 20 29.94 1014 10 16.0934 0 0
11:35 pm 23:35 Clear 45 7.3 27 -2.7 49 49 SSE 16 26 29.94 1014 10 16.0934 0 0
11:55 pm 23:55 Clear 45 7.4 27 -2.6 49 49 SE 14 22 29.94 1014 10 16.0934 0 0

Powered by AerisWeather